FW9354 Weather Reports


time (UTC)temp
C
wind
direction
speed
KPH
gust
KPH
rain 1hr
cm
rain 24hr
cm
rain mn
cm
humidity
%
barometer
mb
20260506091545 9 0 0.0 3.2 0.00 0.00 0.00 77 1017.0
20260506090044 8 0 0.0 1.6 0.00 0.00 0.00 79 1016.9
20260506084544 9 0 0.0 1.6 0.00 0.00 0.00 77 1016.8
20260506083046 9 217 0.0 8.0 0.00 0.00 0.00 76 1016.7
20260506081547 9 0 1.6 8.0 0.00 0.00 0.00 77 1016.6
20260506073045 9 0 0.0 1.6 0.00 0.00 0.00 76 1016.3
20260506071548 9 0 0.0 3.2 0.00 0.00 0.00 76 1016.2
20260506061545 10 0 0.0 0.0 0.00 0.00 0.00 75 1015.3
20260506050104 13 0 0.0 6.4 0.00 0.03 0.00 69 1014.6
20260506044556 13 0 0.0 3.2 0.00 0.13 0.00 66 1014.4
20260506043044 15 0 0.0 6.4 0.00 0.13 0.00 65 1014.2
20260506041544 14 0 0.0 0.0 0.00 0.13 0.00 66 1013.9
20260506040042 13 0 0.0 0.0 0.00 0.13 0.00 68 1013.6
20260506034551 14 0 0.0 0.0 0.00 0.30 0.00 70 1013.6
20260506033045 14 0 0.0 1.6 0.00 0.30 0.00 67 1013.2
20260506031544 15 0 0.0 1.6 0.00 0.30 0.00 63 1013.0
20260506030044 15 0 0.0 1.6 0.00 0.30 0.00 61 1012.7
20260506024550 16 359 0.0 3.2 0.00 0.41 0.00 59 1012.6
20260506023041 17 0 0.0 3.2 0.00 0.41 0.00 57 1012.4
20260506021548 17 0 0.0 4.8 0.00 0.41 0.00 52 1012.1
20260506020053 18 257 0.0 11.3 0.00 0.41 0.00 48 1012.0
20260506014552 19 0 0.0 4.8 0.00 1.04 0.00 46 1011.7
20260506013043 19 210 1.6 4.8 0.00 1.04 0.00 46 1012.0
20260506011609 19 346 1.6 11.3 0.00 1.04 0.00 42 1012.1
20260506010051 20 14 4.8 16.1 0.00 1.04 0.00 41 1011.9
20260506004559 20 198 0.0 3.2 0.00 1.07 0.00 39 1012.2
20260506003046 20 312 0.0 8.0 0.00 1.07 0.00 38 1011.9
20260506001546 20 55 1.6 11.3 0.00 1.07 0.00 38 1012.0
20260506000111 20 334 1.6 14.5 0.00 1.07 0.00 40 1012.1
20260505234548 20 4 3.2 9.7 0.00 1.07 0.00 41 1012.0
20260505233042 20 106 1.6 9.7 0.00 1.07 0.00 43 1012.0
20260505231557 20 164 1.6 8.0 0.00 1.07 0.00 45 1012.3
20260505230101 20 158 1.6 8.0 0.00 1.07 0.00 44 1012.4
20260505224545 20 97 0.0 6.4 0.00 1.07 0.00 46 1012.3
20260505223044 18 359 6.4 14.5 0.00 1.07 0.00 44 1012.9
20260505221541 19 18 1.6 12.9 0.00 1.07 0.00 49 1012.9
20260505220044 18 169 0.0 8.0 0.00 1.07 0.00 46 1013.2
20260505214539 19 17 0.0 6.4 0.00 1.07 0.00 49 1013.3
20260505213044 19 0 1.6 8.0 0.00 1.07 0.00 49 1013.4
20260505211543 18 167 1.6 8.0 0.00 1.07 0.00 56 1013.6
20260505210044 17 333 0.0 12.9 0.00 1.07 0.00 54 1013.7
20260505204552 16 16 3.2 12.9 0.00 1.19 0.00 52 1013.9
20260505203052 17 37 3.2 11.3 0.00 1.19 0.00 52 1014.1
20260505201536 16 27 0.0 9.7 0.00 1.19 0.00 56 1014.2
20260505200047 16 192 4.8 9.7 0.00 1.19 0.00 60 1014.2
20260505194603 16 147 1.6 9.7 0.00 1.19 0.00 57 1014.1
20260505193042 16 186 3.2 8.0 0.00 1.19 0.00 59 1014.1
20260505191553 16 144 1.6 9.7 0.00 1.19 0.00 63 1014.2
20260505190042 15 332 0.0 4.8 0.00 1.19 0.00 69 1014.1
20260505184548 13 69 1.6 6.4 0.00 1.19 0.00 64 1014.1
20260505183043 13 162 0.0 8.0 0.00 1.19 0.00 67 1013.9
20260505181542 13 0 0.0 1.6 0.00 1.19 0.00 68 1013.8
20260505180047 13 179 3.2 8.0 0.00 1.19 0.00 71 1013.9
20260505174549 13 205 6.4 12.9 0.00 1.19 0.00 73 1013.5
20260505173059 12 210 3.2 9.7 0.00 1.19 0.00 78 1013.4
20260505171556 11 145 0.0 14.5 0.00 1.19 0.00 81 1013.4
20260505170044 10 150 4.8 11.3 0.00 1.19 0.00 83 1013.4
20260505164544 10 148 1.6 11.3 0.00 1.30 0.00 84 1013.2
20260505163049 9 168 3.2 8.0 0.00 1.30 0.00 84 1013.1
20260505161551 8 156 1.6 4.8 0.00 1.30 0.00 87 1012.9
20260505153043 7 143 0.0 6.4 0.00 1.30 0.00 89 1012.6
20260505151541 7 203 0.0 11.3 0.00 1.30 0.00 90 1012.5
20260505150106 7 139 0.0 3.2 0.00 1.30 0.00 94 1012.3
20260505124551 5 0 0.0 0.0 0.00 1.30 0.00 95 1011.1
20260505123053 5 206 0.0 3.2 0.00 1.30 0.00 95 1011.1
20260505121612 5 0 0.0 1.6 0.00 1.30 0.00 95 1011.1
20260505120046 5 0 0.0 1.6 0.00 1.30 0.00 95 1011.1
20260505114545 5 0 0.0 0.0 0.00 1.30 0.00 95 1011.0
20260505113048 5 0 0.0 0.0 0.00 1.30 0.00 95 1011.0
20260505111548 5 0 0.0 0.0 0.00 1.30 0.00 95 1011.0
20260505101546 5 0 0.0 0.0 0.00 1.30 0.00 95 1011.4
20260505100113 4 0 0.0 3.2 0.00 1.30 0.00 95 1011.4
20260505094545 4 169 0.0 3.2 0.00 1.30 0.00 95 1011.4
20260505093042 4 0 0.0 0.0 0.00 1.30 0.00 95 1011.5